Vorticity
3 5 9 12 11 10 4 6 3 6 13 6 11 7 1 3 0 2 -4 2 6 9 5 5 5 3 4 2 2 3 4 5 5 5 3 4 5 5 7 9 11 9 9 8 9 6 4 4 4
6 7 9 10 9 9 3 7 5 6 2 -1 0 1 -1 0 3 3 4 5 1 7 4 3 5 5 6 5 4 5 5 5 5 4 5 4 4 5 6 7 6 8 9 6 4 7 7 8 6
8 11 13 12 7 6 5 6 8 7 1 6 12 3 5 -3 1 -0 2 -1 13 8 8 6 7 5 4 4 4 4 4 5 6 5 5 5 5 6 6 6 5 6 7 14 7 4 1 4 4
10 8 8 10 8 8 5 3 6 4 2 6 1 0 4 5 15 14 9 11 10 8 5 5 8 8 5 5 5 5 4 5 6 6 5 4 5 7 6 5 5 4 5 7 12 13 7 6 4
6 8 8 11 8 6 7 5 2 5 6 -1 -2 2 4 10 8 2 -0 4 4 4 7 9 5 5 6 5 5 5 4 5 5 4 4 4 5 6 5 5 5 5 4 5 8 8 10 9 6
8 8 10 10 8 7 6 4 3 3 3 6 4 3 7 4 8 16 5 5 7 4 3 6 11 7 6 6 6 5 5 5 6 6 5 5 5 5 4 6 6 6 6 4 5 5 5 4 3
11 11 9 12 10 7 6 4 6 3 5 4 4 3 4 5 11 6 9 8 3 5 9 5 5 12 10 5 6 6 6 5 5 6 6 6 5 4 4 5 5 6 6 4 6 6 5 5 5
12 13 14 12 10 8 7 5 6 7 7 6 5 9 10 6 2 9 5 8 8 3 1 6 5 3 8 11 7 6 5 4 3 4 5 5 5 5 5 5 6 4 7 7 6 4 4 5 6
13 14 15 12 15 14 9 7 6 6 6 7 7 8 6 8 4 6 5 8 7 5 1 3 3 6 2 1 4 5 6 6 5 4 4 4 5 5 6 5 5 6 6 7 6 5 5 4 6
7 3 -2 3 4 9 17 16 14 11 11 15 12 11 8 7 6 5 6 8 11 14 9 1 2 5 4 7 4 4 5 6 6 6 5 5 4 4 6 6 5 6 6 5 5 5 7 7 5
-2 -4 -2 -4 -1 5 3 1 -2 1 5 7 5 7 7 8 8 7 8 11 12 7 5 10 7 4 6 6 5 4 4 5 5 6 7 7 5 3 4 6 5 5 6 7 4 5 7 6 5
-1 1 3 0 3 -2 1 4 3 4 6 -2 -2 -1 4 7 6 8 9 5 4 4 11 12 7 6 8 6 4 5 7 7 7 7 7 5 2 4 4 5 6 5 3 4 6 6 5 6 6
-2 -3 -1 -1 2 3 4 2 3 9 9 6 4 4 3 2 -1 -1 -1 -3 -1 6 8 2 6 7 10 10 5 2 10 17 -3 -10 5 5 4 6 5 4 4 6 3 3 6 5 4 4 5
2 3 4 -1 -2 2 3 0 4 15 -0 3 6 6 9 8 8 7 4 3 1 1 2 4 2 7 15 8 8 8 10 20 -17 64 5 -15 1 -1 -4 4 2 4 6 3 5 4 4 5 5
-8 -8 -3 3 -5 -1 11 -1 4 5 2 3 9 9 7 4 3 4 7 8 8 7 9 6 4 4 3 4 10 10 5 4 -15 26 -12 19 8 17 10 17 46 -7 4 6 4 6 5 5 7
8 5 0 3 2 -6 12 -8 3 6 8 4 4 3 2 2 3 6 4 1 -2 -0 -0 -0 4 7 1 3 3 6 9 6 4 5 -3 30 2 12 -2 20 18 -15 17 2 4 0 3 -0 7
3 14 6 -0 4 10 8 -2 -0 4 8 9 6 2 0 1 3 2 4 4 4 4 5 3 4 8 7 6 4 6 5 5 8 8 1 4 -7 -4 4 -12 21 7 42 5 2 1 2 6 3
0 12 12 13 22 22 15 7 12 14 10 3 1 -1 5 3 3 0 1 4 2 -2 3 4 8 11 13 14 8 7 6 8 4 9 9 5 6 5 13 5 7 47 61 7 -5 4 -0 0 -2
19 9 14 10 11 8 9 10 11 5 0 3 3 5 6 11 10 9 4 3 3 4 7 13 25 25 18 17 15 5 8 10 8 4 7 5 4 8 5 8 4 5 5 30 -0 8 3 5 2
7 4 5 6 5 6 4 2 4 3 6 7 5 5 9 10 20 19 22 24 25 26 25 24 3 7 16 16 -2 9 4 12 10 7 4 6 8 10 7 6 -2 -9 22 83 -13 5 2 7 19
15 12 8 7 6 6 10 6 7 4 10 11 16 20 25 33 35 18 22 14 14 14 8 14 8 10 7 13 22 19 14 9 6 10 10 6 4 6 11 9 7 6 8 1 -15 13 -10 9 15
6 11 8 6 6 9 7 15 9 11 8 8 16 21 16 11 19 18 24 29 -8 -3 24 16 4 7 10 27 10 8 24 13 8 7 11 13 4 0 9 9 9 7 7 7 7 2 13 17 24
7 5 9 10 7 11 11 18 12 18 29 26 21 6 8 12 14 6 10 31 21 5 29 -27 -9 22 10 16 10 14 20 23 7 6 5 7 12 6 3 12 12 10 9 9 8 7 5 1 13
12 17 12 13 18 15 25 6 23 24 14 14 9 21 23 7 10 16 6 30 20 15 12 17 0 12 13 18 6 1 9 20 -1 16 12 10 5 7 3 3 6 5 4 5 6 7 8 10 6
13 15 19 21 21 18 19 7 4 11 7 12 11 6 3 20 16 17 20 27 14 -0 7 28 1 0 8 2 -2 10 11 18 25 19 14 13 9 10 8 6 6 9 10 7 7 7 3 6 8
15 14 9 7 7 8 7 8 13 13 7 7 10 5 15 37 3 3 39 19 -18 15 22 14 13 22 12 6 9 14 2 7 23 27 28 19 12 8 10 11 7 9 9 10 10 9 8 8 5
13 9 11 11 11 9 5 5 8 13 18 7 12 14 11 17 19 17 10 48 52 33 1 10 14 -25 21 -3 13 -1 -5 -1 14 -19 -7 12 26 17 15 15 12 7 8 8 9 9 9 9 8
8 7 9 5 0 1 6 7 10 10 9 13 3 1 14 1 -13 -8 -14 -2 1 -2 -8 2 43 48 37 9 22 13 13 4 14 23 28 25 18 16 18 16 12 12 9 9 9 10 10 11 11
-1 6 3 4 1 8 8 1 10 8 12 12 12 7 12 12 10 1 5 5 8 8 7 -0 22 8 10 8 7 -4 4 10 25 25 23 22 19 14 12 11 12 12 11 10 10 11 10 10 9
2 4 10 7 6 3 -1 -1 21 9 20 12 5 4 6 11 14 14 4 13 12 7 8 11 -5 -7 1 10 18 13 6 11 11 1 6 11 13 16 17 12 10 10 10 10 7 5 5 3 3
Height
5851 5850 5850 5851 5855 5851 5846 5848 5844 5844 5847 5850 5850 5851 5852 5853 5855 5856 5854 5853 5852 5851 5850 5850 5850 5849 5848 5848 5848 5850 5851 5851 5850 5849 5848 5848 5847 5847 5847 5847 5846 5845 5845 5845 5845 5845 5845 5844 5844
5847 5846 5847 5848 5850 5847 5842 5842 5841 5839 5841 5842 5844 5845 5846 5848 5848 5848 5849 5850 5849 5848 5847 5846 5846 5846 5846 5845 5845 5846 5847 5848 5847 5846 5846 5845 5845 5844 5843 5843 5843 5842 5842 5842 5841 5841 5841 5841 5840
5842 5841 5844 5845 5846 5842 5839 5837 5838 5838 5838 5840 5840 5840 5841 5842 5844 5845 5845 5846 5846 5846 5845 5844 5843 5843 5843 5842 5841 5841 5842 5844 5844 5844 5843 5842 5842 5841 5841 5840 5840 5839 5839 5839 5839 5838 5838 5837 5837
5835 5836 5839 5841 5840 5838 5836 5832 5833 5834 5835 5835 5837 5836 5836 5839 5841 5842 5842 5842 5842 5841 5841 5842 5841 5840 5839 5839 5838 5838 5838 5839 5840 5840 5839 5839 5838 5838 5838 5837 5836 5836 5836 5836 5835 5835 5835 5834 5834
5829 5830 5833 5836 5835 5833 5831 5826 5824 5830 5830 5832 5834 5833 5834 5835 5835 5836 5837 5838 5837 5836 5836 5835 5835 5835 5835 5835 5835 5835 5834 5835 5836 5835 5835 5835 5834 5834 5834 5834 5833 5832 5832 5832 5832 5831 5831 5832 5831
5823 5825 5828 5830 5830 5828 5824 5819 5821 5823 5826 5829 5830 5829 5830 5831 5831 5831 5832 5834 5833 5832 5831 5830 5830 5830 5830 5830 5830 5830 5830 5830 5831 5831 5831 5831 5831 5830 5830 5830 5829 5828 5828 5828 5829 5828 5828 5827 5827
5819 5821 5823 5825 5824 5822 5819 5818 5821 5819 5820 5823 5825 5825 5826 5825 5825 5826 5826 5826 5827 5825 5825 5825 5825 5824 5825 5825 5824 5824 5825 5825 5825 5827 5827 5827 5827 5826 5825 5825 5824 5824 5823 5824 5823 5823 5824 5824 5822
5815 5817 5818 5819 5819 5818 5817 5815 5819 5819 5817 5818 5820 5819 5817 5815 5816 5818 5820 5822 5822 5821 5819 5818 5818 5819 5819 5820 5820 5819 5819 5819 5819 5821 5823 5822 5823 5823 5821 5820 5820 5820 5819 5819 5819 5819 5818 5819 5818
5812 5814 5813 5813 5816 5816 5814 5814 5814 5813 5813 5814 5816 5812 5810 5809 5810 5811 5814 5816 5816 5816 5814 5813 5812 5812 5812 5814 5814 5814 5813 5813 5813 5814 5815 5816 5817 5818 5818 5816 5815 5815 5814 5814 5814 5814 5814 5813 5812
5809 5810 5809 5809 5811 5813 5811 5811 5809 5808 5808 5812 5809 5807 5803 5802 5802 5803 5807 5810 5811 5810 5808 5807 5806 5807 5806 5807 5808 5808 5807 5807 5808 5808 5808 5808 5809 5810 5811 5812 5811 5810 5810 5810 5809 5808 5809 5809 5808
5806 5806 5805 5806 5807 5808 5810 5807 5805 5803 5806 5805 5800 5799 5797 5796 5796 5796 5798 5800 5802 5801 5801 5801 5802 5801 5801 5801 5801 5802 5802 5801 5800 5801 5802 5802 5801 5801 5804 5806 5806 5805 5805 5805 5804 5804 5803 5803 5803
5799 5799 5798 5800 5801 5803 5802 5803 5801 5796 5803 5799 5793 5792 5792 5791 5789 5789 5791 5790 5791 5791 5792 5794 5795 5797 5796 5794 5794 5794 5793 5793 5792 5792 5793 5794 5793 5794 5796 5796 5797 5796 5796 5797 5797 5797 5796 5797 5797
5791 5792 5791 5792 5794 5793 5792 5792 5790 5795 5794 5788 5787 5786 5785 5785 5783 5783 5783 5784 5784 5784 5783 5784 5786 5789 5789 5787 5785 5785 5784 5781 5779 5779 5782 5783 5783 5783 5785 5787 5789 5790 5789 5789 5790 5789 5789 5789 5789
5784 5783 5783 5784 5786 5782 5783 5781 5781 5788 5782 5779 5777 5777 5776 5776 5775 5775 5776 5777 5777 5777 5778 5777 5774 5778 5780 5779 5777 5775 5774 5768 5761 5763 5768 5770 5771 5772 5775 5776 5779 5782 5781 5780 5780 5781 5780 5780 5781
5776 5775 5773 5775 5774 5772 5771 5772 5775 5771 5769 5768 5767 5766 5764 5764 5764 5765 5766 5768 5769 5769 5768 5769 5767 5767 5768 5768 5768 5767 5764 5761 5758 5753 5754 5757 5758 5760 5762 5764 5766 5771 5773 5770 5771 5771 5771 5772 5772
5765 5763 5762 5763 5763 5763 5763 5763 5761 5760 5757 5756 5752 5750 5751 5753 5754 5757 5757 5757 5756 5754 5755 5755 5756 5755 5756 5757 5756 5755 5753 5751 5752 5752 5754 5742 5743 5749 5748 5753 5754 5753 5754 5755 5758 5760 5762 5763 5764
5755 5749 5749 5750 5750 5752 5754 5754 5750 5748 5746 5744 5742 5740 5737 5737 5739 5742 5742 5741 5741 5741 5742 5742 5741 5740 5741 5741 5743 5743 5742 5740 5740 5744 5741 5742 5742 5744 5744 5743 5742 5741 5738 5742 5744 5748 5751 5752 5752
5740 5738 5736 5736 5736 5735 5739 5743 5738 5735 5733 5730 5728 5725 5719 5720 5721 5724 5724 5723 5723 5725 5725 5725 5726 5726 5727 5729 5729 5729 5728 5728 5728 5730 5731 5729 5730 5733 5734 5732 5732 5720 5723 5730 5733 5737 5741 5744 5744
5729 5727 5726 5725 5723 5723 5725 5729 5726 5723 5718 5715 5712 5706 5703 5703 5703 5705 5705 5704 5705 5704 5705 5705 5706 5708 5710 5713 5716 5716 5714 5713 5714 5714 5716 5717 5715 5721 5723 5723 5720 5718 5713 5724 5726 5726 5729 5734 5735
5717 5718 5715 5713 5711 5710 5712 5717 5717 5710 5702 5695 5694 5691 5689 5687 5687 5687 5686 5683 5683 5683 5685 5686 5688 5691 5695 5699 5698 5698 5698 5699 5699 5702 5702 5702 5703 5706 5709 5711 5711 5713 5710 5708 5711 5719 5725 5725 5726
5708 5705 5707 5701 5699 5700 5697 5702 5706 5698 5685 5679 5678 5675 5671 5670 5670 5670 5668 5667 5667 5667 5669 5671 5672 5675 5679 5682 5682 5681 5682 5683 5684 5686 5689 5689 5688 5689 5695 5698 5698 5700 5703 5703 5701 5710 5707 5714 5717
5693 5694 5693 5691 5684 5687 5681 5679 5691 5680 5673 5668 5665 5661 5659 5657 5657 5657 5656 5656 5655 5654 5654 5656 5657 5660 5662 5664 5665 5665 5666 5669 5671 5674 5675 5677 5676 5675 5681 5684 5688 5690 5692 5696 5698 5700 5701 5703 5706
5681 5679 5678 5677 5673 5672 5673 5663 5678 5663 5661 5657 5654 5650 5649 5648 5645 5645 5644 5643 5642 5643 5644 5644 5647 5646 5649 5650 5652 5654 5655 5656 5657 5658 5663 5665 5665 5664 5665 5671 5675 5677 5679 5681 5684 5686 5689 5692 5694
5671 5668 5666 5664 5660 5659 5666 5649 5656 5655 5649 5646 5643 5641 5638 5636 5635 5634 5633 5630 5630 5632 5633 5634 5636 5637 5638 5640 5641 5643 5647 5646 5646 5645 5647 5650 5653 5653 5651 5655 5662 5666 5667 5669 5672 5674 5677 5680 5681
5659 5657 5655 5653 5651 5650 5649 5645 5642 5645 5640 5636 5634 5631 5629 5626 5625 5624 5624 5621 5621 5622 5623 5624 5625 5628 5630 5630 5632 5633 5635 5636 5637 5638 5638 5638 5639 5640 5641 5640 5644 5650 5654 5657 5659 5662 5663 5666 5669
5651 5649 5647 5643 5642 5643 5641 5638 5638 5636 5633 5630 5627 5624 5622 5617 5617 5618 5616 5614 5614 5614 5614 5614 5614 5616 5618 5620 5623 5625 5625 5625 5626 5626 5628 5627 5627 5627 5627 5629 5629 5632 5638 5642 5646 5649 5652 5654 5657
5644 5642 5640 5638 5637 5632 5634 5631 5629 5626 5626 5624 5621 5619 5616 5613 5611 5609 5607 5607 5605 5606 5606 5605 5605 5605 5607 5610 5612 5612 5613 5614 5615 5614 5613 5612 5612 5613 5614 5616 5617 5617 5621 5625 5629 5634 5637 5640 5645
5637 5634 5633 5631 5629 5625 5624 5621 5618 5618 5615 5615 5614 5612 5609 5608 5605 5602 5601 5600 5598 5596 5596 5597 5596 5594 5598 5601 5603 5604 5602 5601 5599 5597 5596 5595 5596 5597 5600 5602 5603 5605 5605 5608 5612 5617 5620 5624 5627
5628 5627 5626 5624 5623 5618 5615 5614 5611 5608 5606 5606 5604 5602 5600 5599 5597 5595 5594 5590 5590 5592 5591 5588 5587 5590 5591 5592 5592 5592 5589 5586 5584 5582 5581 5581 5581 5582 5584 5586 5588 5590 5593 5595 5597 5600 5603 5607 5610
5620 5619 5617 5614 5614 5610 5606 5604 5601 5599 5597 5595 5592 5593 5593 5592 5590 5588 5585 5585 5585 5584 5583 5582 5585 5585 5584 5583 5580 5577 5577 5576 5574 5572 5570 5569 5568 5568 5569 5571 5572 5575 5577 5580 5584 5587 5589 5592 5595